����������;��������(kVARh)
2018-06-25 00:00;21,05
2018-06-25 00:15;19,7
2018-06-25 00:30;18,2
2018-06-25 00:45;12,1
2018-06-25 01:00;11,8
2018-06-25 01:15;12
2018-06-25 01:30;12,45
2018-06-25 01:45;12,65
2018-06-25 02:00;12,2
2018-06-25 02:15;13,85
2018-06-25 02:30;12,15
2018-06-25 02:45;12,85
2018-06-25 03:00;12,65
2018-06-25 03:15;12,6
2018-06-25 03:30;13,3
2018-06-25 03:45;12,3
2018-06-25 04:00;13,8
2018-06-25 04:15;13,7
2018-06-25 04:30;13,8
2018-06-25 04:45;13,2
2018-06-25 05:00;13,85
2018-06-25 05:15;13,25
2018-06-25 05:30;13
2018-06-25 05:45;15,2
2018-06-25 06:00;14,45
2018-06-25 06:15;14,75
2018-06-25 06:30;31
2018-06-25 06:45;33,75
2018-06-25 07:00;30,8
2018-06-25 07:15;26,7
2018-06-25 07:30;27,95
2018-06-25 07:45;62,75
2018-06-25 08:00;71,65
2018-06-25 08:15;65,75
2018-06-25 08:30;52,5
2018-06-25 08:45;53,2
2018-06-25 09:00;62
2018-06-25 09:15;63,7
2018-06-25 09:30;62,25
2018-06-25 09:45;69,2
2018-06-25 10:00;71,75
2018-06-25 10:15;69,2
2018-06-25 10:30;68,8
2018-06-25 10:45;76,25
2018-06-25 11:00;81,55
2018-06-25 11:15;82,25
2018-06-25 11:30;86,75
2018-06-25 11:45;82,75
2018-06-25 12:00;86,35
2018-06-25 12:15;84,35
2018-06-25 12:30;77,35
2018-06-25 12:45;78,95
2018-06-25 13:00;85,9
2018-06-25 13:15;82,6
2018-06-25 13:30;78,75
2018-06-25 13:45;79,3
2018-06-25 14:00;83,85
2018-06-25 14:15;81,9
2018-06-25 14:30;77
2018-06-25 14:45;77,1
2018-06-25 15:00;81,8
2018-06-25 15:15;82,25
2018-06-25 15:30;78,25
2018-06-25 15:45;74,8
2018-06-25 16:00;69,4
2018-06-25 16:15;73,7
2018-06-25 16:30;70,9
2018-06-25 16:45;68,7
2018-06-25 17:00;62,55
2018-06-25 17:15;66,8
2018-06-25 17:30;66,85
2018-06-25 17:45;60,6
2018-06-25 18:00;59,7
2018-06-25 18:15;48,15
2018-06-25 18:30;47,1
2018-06-25 18:45;48
2018-06-25 19:00;45
2018-06-25 19:15;39,95
2018-06-25 19:30;37,95
2018-06-25 19:45;36,95
2018-06-25 20:00;29,85
2018-06-25 20:15;26,05
2018-06-25 20:30;24,4
2018-06-25 20:45;25,45
2018-06-25 21:00;27,1
2018-06-25 21:15;28,3
2018-06-25 21:30;25,5
2018-06-25 21:45;23,55
2018-06-25 22:00;24,2
2018-06-25 22:15;22,4
2018-06-25 22:30;22,1
2018-06-25 22:45;23,15
2018-06-25 23:00;24,05
2018-06-25 23:15;21,2
2018-06-25 23:30;22,1
2018-06-25 23:45;20,85
2018-06-26 00:00;18,45
2018-06-26 00:15;18,65
2018-06-26 00:30;18,55
2018-06-26 00:45;17,85
2018-06-26 01:00;12,25
2018-06-26 01:15;11,15
2018-06-26 01:30;8,65
2018-06-26 01:45;1,95
2018-06-26 02:00;1,65
2018-06-26 02:15;2,65
2018-06-26 02:30;1,7
2018-06-26 02:45;2,5
2018-06-26 03:00;3,15
2018-06-26 03:15;2,3
2018-06-26 03:30;3,1
2018-06-26 03:45;4,3
2018-06-26 04:00;4,25
2018-06-26 04:15;3,2
2018-06-26 04:30;5,35
2018-06-26 04:45;4,35
2018-06-26 05:00;5,3
2018-06-26 05:15;5,1
2018-06-26 05:30;4,55
2018-06-26 05:45;5,05
2018-06-26 06:00;5,95
2018-06-26 06:15;5,45
2018-06-26 06:30;11,45
2018-06-26 06:45;24,45
2018-06-26 07:00;26,3
2018-06-26 07:15;22,85
2018-06-26 07:30;21,05
2018-06-26 07:45;57,65
2018-06-26 08:00;59,25
2018-06-26 08:15;35,25
2018-06-26 08:30;51,9
2018-06-26 08:45;70,45
2018-06-26 09:00;68
2018-06-26 09:15;68,15
2018-06-26 09:30;70
2018-06-26 09:45;65,7
2018-06-26 10:00;66,75
2018-06-26 10:15;69
2018-06-26 10:30;73,05
2018-06-26 10:45;66,05
2018-06-26 11:00;65,9
2018-06-26 11:15;70,95
2018-06-26 11:30;77,85
2018-06-26 11:45;73,85
2018-06-26 12:00;79,9
2018-06-26 12:15;86,45
2018-06-26 12:30;82,95
2018-06-26 12:45;80,1
2018-06-26 13:00;91,3
2018-06-26 13:15;89,85
2018-06-26 13:30;82,25
2018-06-26 13:45;86,05
2018-06-26 14:00;89,15
2018-06-26 14:15;83,1
2018-06-26 14:30;84,05
2018-06-26 14:45;86,4
2018-06-26 15:00;87,55
2018-06-26 15:15;84,85
2018-06-26 15:30;83,65
2018-06-26 15:45;96,45
2018-06-26 16:00;96,45
2018-06-26 16:15;93,25
2018-06-26 16:30;94,45
2018-06-26 16:45;87,2
2018-06-26 17:00;71,15
2018-06-26 17:15;61,1
2018-06-26 17:30;63,35
2018-06-26 17:45;61,45
2018-06-26 18:00;57,85
2018-06-26 18:15;49,9
2018-06-26 18:30;46,1
2018-06-26 18:45;43,75
2018-06-26 19:00;42,9
2018-06-26 19:15;41,6
2018-06-26 19:30;40,75
2018-06-26 19:45;42,7
2018-06-26 20:00;39,1
2018-06-26 20:15;36,6
2018-06-26 20:30;36,9
2018-06-26 20:45;35,1
2018-06-26 21:00;32,05
2018-06-26 21:15;31,45
2018-06-26 21:30;33,35
2018-06-26 21:45;34,05
2018-06-26 22:00;26,75
2018-06-26 22:15;14,5
2018-06-26 22:30;14,6
2018-06-26 22:45;17,6
2018-06-26 23:00;18,25
2018-06-26 23:15;19,35
2018-06-26 23:30;17,3
2018-06-26 23:45;18,25
2018-06-27 00:00;17,95
2018-06-27 00:15;11,55
2018-06-27 00:30;14,7
2018-06-27 00:45;9,8
2018-06-27 01:00;6,4
2018-06-27 01:15;6,45
2018-06-27 01:30;2,55
2018-06-27 01:45;1,75
2018-06-27 02:00;2
2018-06-27 02:15;1,55
2018-06-27 02:30;2,9
2018-06-27 02:45;2,3
2018-06-27 03:00;2,8
2018-06-27 03:15;3,3
2018-06-27 03:30;2,6
2018-06-27 03:45;3
2018-06-27 04:00;3,65
2018-06-27 04:15;2,9
2018-06-27 04:30;2,05
2018-06-27 04:45;3,25
2018-06-27 05:00;3,65
2018-06-27 05:15;2,8
2018-06-27 05:30;6,6
2018-06-27 05:45;14,5
2018-06-27 06:00;13,5
2018-06-27 06:15;14
2018-06-27 06:30;13,35
2018-06-27 06:45;13,55
2018-06-27 07:00;14,8
2018-06-27 07:15;31,05
2018-06-27 07:30;29,55
2018-06-27 07:45;63,35
2018-06-27 08:00;60,35
2018-06-27 08:15;49
2018-06-27 08:30;38,8
2018-06-27 08:45;41,45
2018-06-27 09:00;49,05
2018-06-27 09:15;46,65
2018-06-27 09:30;44,25
2018-06-27 09:45;54,35
2018-06-27 10:00;69,3
2018-06-27 10:15;65,1
2018-06-27 10:30;82,05
2018-06-27 10:45;82,75
2018-06-27 11:00;84,3
2018-06-27 11:15;74,65
2018-06-27 11:30;77,15
2018-06-27 11:45;89,1
2018-06-27 12:00;88,8
2018-06-27 12:15;81,7
2018-06-27 12:30;81
2018-06-27 12:45;73,35
2018-06-27 13:00;80,25
2018-06-27 13:15;83,2
2018-06-27 13:30;79,6
2018-06-27 13:45;84,55
2018-06-27 14:00;77,45
2018-06-27 14:15;80,2
2018-06-27 14:30;85,05
2018-06-27 14:45;77,4
2018-06-27 15:00;83,15
2018-06-27 15:15;84,4
2018-06-27 15:30;68,95
2018-06-27 15:45;74,9
2018-06-27 16:00;70,8
2018-06-27 16:15;81,6
2018-06-27 16:30;66,9
2018-06-27 16:45;67,8
2018-06-27 17:00;58,65
2018-06-27 17:15;61,05
2018-06-27 17:30;53,8
2018-06-27 17:45;56,8
2018-06-27 18:00;48,9
2018-06-27 18:15;50,7
2018-06-27 18:30;42,75
2018-06-27 18:45;43,85
2018-06-27 19:00;40,8
2018-06-27 19:15;29,85
2018-06-27 19:30;27,05
2018-06-27 19:45;28,3
2018-06-27 20:00;27,2
2018-06-27 20:15;25,15
2018-06-27 20:30;26,25
2018-06-27 20:45;28,15
2018-06-27 21:00;21,25
2018-06-27 21:15;23,2
2018-06-27 21:30;18,3
2018-06-27 21:45;15,85
2018-06-27 22:00;10,25
2018-06-27 22:15;6,95
2018-06-27 22:30;8,4
2018-06-27 22:45;8,05
2018-06-27 23:00;8,65
2018-06-27 23:15;7,55
2018-06-27 23:30;7,6
2018-06-27 23:45;9,1
2018-06-28 00:00;8,7
2018-06-28 00:15;6,25
2018-06-28 00:30;3,4
2018-06-28 00:45;2,55
2018-06-28 01:00;2,65
2018-06-28 01:15;1,5
2018-06-28 01:30;2,25
2018-06-28 01:45;2,7
2018-06-28 02:00;1,5
2018-06-28 02:15;1,95
2018-06-28 02:30;2,2
2018-06-28 02:45;1,65
2018-06-28 03:00;3,15
2018-06-28 03:15;2,35
2018-06-28 03:30;2,85
2018-06-28 03:45;4,25
2018-06-28 04:00;3,85
2018-06-28 04:15;3,35
2018-06-28 04:30;1,8
2018-06-28 04:45;6,6
2018-06-28 05:00;8,7
2018-06-28 05:15;10,5
2018-06-28 05:30;10,4
2018-06-28 05:45;14,4
2018-06-28 06:00;22,4
2018-06-28 06:15;22,35
2018-06-28 06:30;21,55
2018-06-28 06:45;22,5
2018-06-28 07:00;21,25
2018-06-28 07:15;21,9
2018-06-28 07:30;34,35
2018-06-28 07:45;74,3
2018-06-28 08:00;68,6
2018-06-28 08:15;36,3
2018-06-28 08:30;40,3
2018-06-28 08:45;39,25
2018-06-28 09:00;48,55
2018-06-28 09:15;51,95
2018-06-28 09:30;47,95
2018-06-28 09:45;55,1
2018-06-28 10:00;49,9
2018-06-28 10:15;58,1
2018-06-28 10:30;52,15
2018-06-28 10:45;61,1
2018-06-28 11:00;54,55
2018-06-28 11:15;62,1
2018-06-28 11:30;60,85
2018-06-28 11:45;72,25
2018-06-28 12:00;67,25
2018-06-28 12:15;71,45
2018-06-28 12:30;66,1
2018-06-28 12:45;77,3
2018-06-28 13:00;71,85
2018-06-28 13:15;68,2
2018-06-28 13:30;77,95
2018-06-28 13:45;72,8
2018-06-28 14:00;69,95
2018-06-28 14:15;78,25
2018-06-28 14:30;76,7
2018-06-28 14:45;71,9
2018-06-28 15:00;78,7
2018-06-28 15:15;70,95
2018-06-28 15:30;70,05
2018-06-28 15:45;70,9
2018-06-28 16:00;69,4
2018-06-28 16:15;72,1
2018-06-28 16:30;68,55
2018-06-28 16:45;65,15
2018-06-28 17:00;62,3
2018-06-28 17:15;55,7
2018-06-28 17:30;57,75
2018-06-28 17:45;50,8
2018-06-28 18:00;39,85
2018-06-28 18:15;42,95
2018-06-28 18:30;38,25
2018-06-28 18:45;35,95
2018-06-28 19:00;37,25
2018-06-28 19:15;35
2018-06-28 19:30;33
2018-06-28 19:45;32
2018-06-28 20:00;30,2
2018-06-28 20:15;28,15
2018-06-28 20:30;28,55
2018-06-28 20:45;29,1
2018-06-28 21:00;29,85
2018-06-28 21:15;24,7
2018-06-28 21:30;22,75
2018-06-28 21:45;22,15
2018-06-28 22:00;22,65
2018-06-28 22:15;21,85
2018-06-28 22:30;21,5
2018-06-28 22:45;20,45
2018-06-28 23:00;7,7
2018-06-28 23:15;6,5
2018-06-28 23:30;7,6
2018-06-28 23:45;10,3
2018-06-29 00:00;10,65
2018-06-29 00:15;12,8
2018-06-29 00:30;8
2018-06-29 00:45;3,25
2018-06-29 01:00;3,3
2018-06-29 01:15;2,55
2018-06-29 01:30;2,95
2018-06-29 01:45;3,3
2018-06-29 02:00;0,4
2018-06-29 02:15;0,4
2018-06-29 02:30;0,1
2018-06-29 02:45;0,15
2018-06-29 03:00;0,75
2018-06-29 03:15;0,1
2018-06-29 03:30;0,6
2018-06-29 03:45;0,9
2018-06-29 04:00;1,5
2018-06-29 04:15;0,75
2018-06-29 04:30;6,4
2018-06-29 04:45;17,6
2018-06-29 05:00;15,75
2018-06-29 05:15;19,05
2018-06-29 05:30;15,6
2018-06-29 05:45;16,05
2018-06-29 06:00;15,5
2018-06-29 06:15;20,2
2018-06-29 06:30;27,8
2018-06-29 06:45;26,8
2018-06-29 07:00;27,1
2018-06-29 07:15;31
2018-06-29 07:30;32,5
2018-06-29 07:45;59,1
2018-06-29 08:00;35,3
2018-06-29 08:15;34
2018-06-29 08:30;39,1
2018-06-29 08:45;35,4
2018-06-29 09:00;36,6
2018-06-29 09:15;45,9
2018-06-29 09:30;45,55
2018-06-29 09:45;45,95
2018-06-29 10:00;61,2
2018-06-29 10:15;55,15
2018-06-29 10:30;53
2018-06-29 10:45;62,45
2018-06-29 11:00;61,3
2018-06-29 11:15;55,3
2018-06-29 11:30;66,55
2018-06-29 11:45;64,5
2018-06-29 12:00;60,5
2018-06-29 12:15;69,25
2018-06-29 12:30;89,7
2018-06-29 12:45;79,9
2018-06-29 13:00;64,55
2018-06-29 13:15;64,75
2018-06-29 13:30;76,3
2018-06-29 13:45;79,35
2018-06-29 14:00;70,6
2018-06-29 14:15;69,65
2018-06-29 14:30;62,95
2018-06-29 14:45;66,6
2018-06-29 15:00;69,85
2018-06-29 15:15;63
2018-06-29 15:30;70,9
2018-06-29 15:45;69,25
2018-06-29 16:00;63,55
2018-06-29 16:15;62
2018-06-29 16:30;60,6
2018-06-29 16:45;50,55
2018-06-29 17:00;49,4
2018-06-29 17:15;47,95
2018-06-29 17:30;42,8
2018-06-29 17:45;47,75
2018-06-29 18:00;42,05
2018-06-29 18:15;35,4
2018-06-29 18:30;42,7
2018-06-29 18:45;31,9
2018-06-29 19:00;31,8
2018-06-29 19:15;30
2018-06-29 19:30;31,25
2018-06-29 19:45;32,85
2018-06-29 20:00;31,75
2018-06-29 20:15;34,5
2018-06-29 20:30;38
2018-06-29 20:45;39,8
2018-06-29 21:00;38,3
2018-06-29 21:15;38,85
2018-06-29 21:30;37,45
2018-06-29 21:45;37,55
2018-06-29 22:00;36,2
2018-06-29 22:15;36,65
2018-06-29 22:30;33,95
2018-06-29 22:45;25,25
2018-06-29 23:00;25
2018-06-29 23:15;25,5
2018-06-29 23:30;13,2
2018-06-29 23:45;7,75
2018-06-30 00:00;7,75
2018-06-30 00:15;7,05
2018-06-30 00:30;7,7
2018-06-30 00:45;8,8
2018-06-30 01:00;9,45
2018-06-30 01:15;9,7
2018-06-30 01:30;4,95
2018-06-30 01:45;4,65
2018-06-30 02:00;5,45
2018-06-30 02:15;4,5
2018-06-30 02:30;5
2018-06-30 02:45;6,05
2018-06-30 03:00;6,65
2018-06-30 03:15;10,05
2018-06-30 03:30;10,1
2018-06-30 03:45;9,9
2018-06-30 04:00;10,65
2018-06-30 04:15;9,75
2018-06-30 04:30;7,75
2018-06-30 04:45;6,95
2018-06-30 05:00;6,1
2018-06-30 05:15;7,1
2018-06-30 05:30;6,05
2018-06-30 05:45;6,1
2018-06-30 06:00;6,7
2018-06-30 06:15;5,8
2018-06-30 06:30;7,55
2018-06-30 06:45;7,05
2018-06-30 07:00;7,1
2018-06-30 07:15;6,1
2018-06-30 07:30;5,45
2018-06-30 07:45;3,85
2018-06-30 08:00;5,05
2018-06-30 08:15;9,05
2018-06-30 08:30;14,95
2018-06-30 08:45;14,7
2018-06-30 09:00;12,9
2018-06-30 09:15;12,45
2018-06-30 09:30;11,25
2018-06-30 09:45;10,15
2018-06-30 10:00;15,4
2018-06-30 10:15;16,15
2018-06-30 10:30;17,15
2018-06-30 10:45;16,3
2018-06-30 11:00;15,4
2018-06-30 11:15;11,85
2018-06-30 11:30;12,2
2018-06-30 11:45;12
2018-06-30 12:00;11,8
2018-06-30 12:15;11,1
2018-06-30 12:30;11,95
2018-06-30 12:45;11,45
2018-06-30 13:00;11,85
2018-06-30 13:15;10,8
2018-06-30 13:30;11,15
2018-06-30 13:45;11,6
2018-06-30 14:00;10,15
2018-06-30 14:15;10,85
2018-06-30 14:30;11,05
2018-06-30 14:45;12,45
2018-06-30 15:00;13,65
2018-06-30 15:15;15,95
2018-06-30 15:30;15,7
2018-06-30 15:45;16,95
2018-06-30 16:00;16,65
2018-06-30 16:15;18
2018-06-30 16:30;17,85
2018-06-30 16:45;17,7
2018-06-30 17:00;19,05
2018-06-30 17:15;15,55
2018-06-30 17:30;16,55
2018-06-30 17:45;18,45
2018-06-30 18:00;21,25
2018-06-30 18:15;18,6
2018-06-30 18:30;20
2018-06-30 18:45;18,95
2018-06-30 19:00;17
2018-06-30 19:15;15,85
2018-06-30 19:30;15,35
2018-06-30 19:45;15,9
2018-06-30 20:00;18,2
2018-06-30 20:15;16,6
2018-06-30 20:30;14,5
2018-06-30 20:45;15,95
2018-06-30 21:00;14,45
2018-06-30 21:15;14,1
2018-06-30 21:30;14
2018-06-30 21:45;15,4
2018-06-30 22:00;14,55
2018-06-30 22:15;14,75
2018-06-30 22:30;17,15
2018-06-30 22:45;16,25
2018-06-30 23:00;15,6
2018-06-30 23:15;14,2
2018-06-30 23:30;12,4
2018-06-30 23:45;13,45
2018-07-01 00:00;12,15
2018-07-01 00:15;12,6
2018-07-01 00:30;14,35
2018-07-01 00:45;14,85
2018-07-01 01:00;15,75
2018-07-01 01:15;15,6
2018-07-01 01:30;16,15
2018-07-01 01:45;16,15
2018-07-01 02:00;12,3
2018-07-01 02:15;11,55
2018-07-01 02:30;11,25
2018-07-01 02:45;11,75
2018-07-01 03:00;10,25
2018-07-01 03:15;10,7
2018-07-01 03:30;13,15
2018-07-01 03:45;13,1
2018-07-01 04:00;13,4
2018-07-01 04:15;13,6
2018-07-01 04:30;13,55
2018-07-01 04:45;14,05
2018-07-01 05:00;13,6
2018-07-01 05:15;14,25
2018-07-01 05:30;13,8
2018-07-01 05:45;13,95
2018-07-01 06:00;16,2
2018-07-01 06:15;15,75
2018-07-01 06:30;16,55
2018-07-01 06:45;16,8
2018-07-01 07:00;16,2
2018-07-01 07:15;15,35
2018-07-01 07:30;15,05
2018-07-01 07:45;14,05
2018-07-01 08:00;12,95
2018-07-01 08:15;16,1
2018-07-01 08:30;17,75
2018-07-01 08:45;18,55
2018-07-01 09:00;19,6
2018-07-01 09:15;17,15
2018-07-01 09:30;16,1
2018-07-01 09:45;18,55
2018-07-01 10:00;19,2
2018-07-01 10:15;18,05
2018-07-01 10:30;17,3
2018-07-01 10:45;17,05
2018-07-01 11:00;21,95
2018-07-01 11:15;20,85
2018-07-01 11:30;21,45
2018-07-01 11:45;20,55
2018-07-01 12:00;2,15
2018-07-01 12:15;0
2018-07-01 12:30;0
2018-07-01 12:45;22,2
2018-07-01 13:00;19,05
2018-07-01 13:15;15,95
2018-07-01 13:30;16,25
2018-07-01 13:45;13,2
2018-07-01 14:00;12,7
2018-07-01 14:15;12,6
2018-07-01 14:30;12,6
2018-07-01 14:45;14,05
2018-07-01 15:00;12,3
2018-07-01 15:15;13,45
2018-07-01 15:30;13,75
2018-07-01 15:45;14,85
2018-07-01 16:00;14,3
2018-07-01 16:15;14,7
2018-07-01 16:30;12,95
2018-07-01 16:45;14,1
2018-07-01 17:00;13,85
2018-07-01 17:15;14,4
2018-07-01 17:30;12,15
2018-07-01 17:45;10,3
2018-07-01 18:00;9,75
2018-07-01 18:15;8,8
2018-07-01 18:30;8,45
2018-07-01 18:45;7,1
2018-07-01 19:00;8,45
2018-07-01 19:15;8,6
2018-07-01 19:30;7,95
2018-07-01 19:45;7,95
2018-07-01 20:00;8,05
2018-07-01 20:15;8,6
2018-07-01 20:30;8,75
2018-07-01 20:45;10,15
2018-07-01 21:00;9,45
2018-07-01 21:15;9,9
2018-07-01 21:30;10
2018-07-01 21:45;8,75
2018-07-01 22:00;6,85
2018-07-01 22:15;6,8
2018-07-01 22:30;5,05
2018-07-01 22:45;7,05
2018-07-01 23:00;8,95
2018-07-01 23:15;8,3
2018-07-01 23:30;8,05
2018-07-01 23:45;7,7

